Overview Statistics Trail Chart Weather Telemetry Raw packets
 

This is the latest recevied weather packets stored in our database for station/object EA5FOG-11. If no packets are shown the sender has not sent any weather packets the latest 10 day(s).

<< 34 35 36 37 38 >>
Time Temp. Humidity Pressure Rain* Wind** Luminosity Snow
1787778599 25.56° C 41% 955.5 hPa - - - -
1787777698 25.56° C 40% 955.1 hPa - - - -
1787776797 25.56° C 39% 954.7 hPa - - - -
1787775896 26.67° C 39% 954.5 hPa - - - -
1787774995 27.22° C 38% 954.2 hPa - - - -
1787774095 27.78° C 38% 953.9 hPa - - - -
1787773194 28.33° C 37% 953.7 hPa - - - -
1787772293 28.33° C 36% 953.2 hPa - - - -
1787771392 28.33° C 35% 953.2 hPa - - - -
1787769608 30.56° C 33% 952.6 hPa - - - -
1787768708 31.11° C 32% 952.4 hPa - - - -
1787767808 32.22° C 31% 952.4 hPa - - - -
1787766906 33.33° C 30% 952.4 hPa - - - -
1787766005 37.22° C 28% 952.4 hPa - - - -
1787765104 38.33° C 27% 952.4 hPa - - - -
1787764204 38.89° C 27% 952.3 hPa - - - -
1787763303 38.89° C 27% 952.2 hPa - - - -
1787762402 38.89° C 27% 952.3 hPa - - - -
1787761501 40° C 26% 952.2 hPa - - - -
1787760600 40.56° C 26% 952.5 hPa - - - -
1787759699 40.56° C 26% 952.3 hPa - - - -
1787758799 40.56° C 26% 952.5 hPa - - - -
1787757898 40.56° C 26% 952.5 hPa - - - -
1787756997 41.11° C 26% 952.5 hPa - - - -
1787756096 41.11° C 26% 952.6 hPa - - - -

* Rain since midnight (hover to see other rain measurements)
** Current wind speed in m/s (hover to see current wind gust speed)